Location: Houston
(29.7630°N, 95.3630°W)
Time: 21:25:05
(UTC-05:00)

Daily predictions for brighter satellites

Satellite Brightness Start Highest point End
(mag) Time Altitude Azimuth Time Altitude Azimuth Time Altitude Azimuth
H-2A R/B 4.3 18:35:04 10° W 18:40:04 56° S 19:18:31 10° ESE
COSMOS 2406 3.4 20:32:24 10° S 20:37:57 53° ESE 20:43:29 10° NNE
NOSS 3-2 (A) 4.5 20:31:12 10° NW 20:38:58 70° WSW 20:47:10 10° SSE
ALOS 2.8 20:35:00 10° S 20:39:36 62° W 20:44:14 10° NNW
Cosmos 773 Rocket 4.1 20:36:19 10° SSW 20:41:28 83° WNW 20:46:37 10° NNE
Cosmos 724 4.5 20:35:45 10° NNW 20:41:43 81° WSW 20:47:30 10° SSE
Cosmos 1812 4.0 20:38:00 10° SSW 20:41:43 46° W 20:45:28 10° N
FengYun 1-2 T 4.4 20:38:13 10° SSE 20:43:49 85° WSW 20:49:23 10° NNW
ASTRO E2 2.8 20:41:24 10° W 20:45:23 75° N 20:49:24 10° E
NOSS 2-2 (C) 4.3 20:41:45 10° SW 20:45:38 53° WNW 20:49:47 10° NNE
FENGYUN 3A 4.4 20:44:34 10° S 20:49:48 57° W 20:55:05 10° NNW
Cosmos 2112 Rocket 4.4 20:45:34 10° S 20:50:27 42° ESE 20:55:19 10° NNE
Cosmos 1975 3.1 20:47:24 10° N 20:51:23 51° E 20:55:21 10° SSE
Cosmos 1743 4.1 20:49:04 10° NNE 20:52:08 22° E 20:54:58 11° SE
ISS -2.0 20:51:05 10° WSW 20:54:09 36° NW 20:57:14 10° NNE
Aureole 3 Rocket 4.3 20:48:05 10° SSE 20:54:36 41° E 20:59:23 10° NNE
Cosmos 1346 3.8 20:52:13 10° SSE 20:54:37 27° E 20:57:02 10° NNE
OAO 2 Rocket 4.2 20:53:50 10° WNW 20:58:34 46° N 21:03:21 10° ENE
CZ-2D R/B 3.2 20:54:58 10° SSE 20:58:47 80° ENE 21:02:37 10° N
Spot 2 Rocket 3.5 20:54:59 10° SSE 21:00:01 80° ENE 21:05:04 10° N
Helios 1A 3.9 20:58:49 12° SE 21:02:16 31° ENE 21:06:00 10° N
GPS 2-14 Rocket1 4.3 21:00:06 10° SW 21:02:42 17° S 21:04:24 14° SE
SL-27 R/B 2.9 20:59:57 10° S 21:03:24 43° ESE 21:06:53 10° NNE
H-2A R/B 3.9 21:02:45 10° S 21:06:16 41° W 21:09:47 10° NNW
Cosmos 1939 Rocket 3.9 21:04:16 14° SE 21:06:46 27° ENE 21:10:02 10° NNE
YAOGAN 6 4.5 21:06:34 13° E 21:07:43 14° ENE 21:09:41 10° NE
USA 81 4.0 21:03:36 10° S 21:08:51 76° E 21:14:07 10° N
Iridium 4 Rocket 3.9 21:03:50 10° N 21:09:05 72° W 21:14:46 10° S
Cosmos 1709 Rocket 4.2 21:04:57 10° N 21:11:09 74° W 21:17:16 10° S
Cosmos 1680 Rocket 3.5 21:07:42 10° SSW 21:12:56 88° E 21:18:10 10° NNE
Okean 1-7 Rocket 4.5 21:11:05 14° SE 21:14:10 30° E 21:18:03 10° NNE
Cosmos 1666 3.8 21:11:34 10° NNE 21:14:45 26° E 21:16:14 20° ESE
Cosmos 1437 4.0 21:14:24 10° SSW 21:17:27 42° W 21:20:33 10° N
Cosmos 1833 Rocket 4.5 21:19:03 12° E 21:19:03 12° E 21:20:28 10° ENE
CZ-3B Rocket 3.3 21:15:15 10° SW 21:18:30 24° SSE 21:21:33 17° ESE
Cosmos 1536 Rocket 4.2 21:17:04 10° SSW 21:21:18 55° W 21:25:32 10° N
Envisat 3.0 21:17:49 13° SSE 21:22:14 64° ENE 21:27:15 10° N
USA 186 2.5 21:22:33 10° S 21:25:41 51° W 21:28:46 10° NNW
Meteor 2-4 Rocket 3.7 21:20:27 10° S 21:25:57 64° E 21:31:39 10° NNE
Cosmos 1656 Rocket 3.6 21:20:57 10° NNW 21:26:25 70° ENE 21:30:21 19° SSE
COSMOS 2455 3.4 21:24:38 10° NNW 21:30:30 57° WSW 21:36:05 11° S
Helios 1B rocket 2.7 21:26:47 10° N 21:30:54 71° WNW 21:35:00 10° SSW
Aurora 2 Rocket 4.2 21:25:14 10° W 21:32:13 60° S 21:38:55 21° ESE
Cosmos 192 4.3 21:27:42 10° SSW 21:32:36 84° WNW 21:37:31 10° NNE
Hubble Space Telescope 2.1 21:31:40 10° SSW 21:34:22 21° S 21:34:22 21° S
Orbus 7S 4.4 21:32:06 10° SW 21:34:55 41° SSE 21:38:12 20° E
Cosmos 1025 Rocket 3.1 21:36:04 25° SSE 21:38:20 52° E 21:42:28 10° NNE
Cosmos 374 Rocket 4.5 21:34:44 10° NNW 21:38:28 57° ENE 21:40:04 33° SE
Cosmos 405 3.9 21:37:08 10° NNE 21:40:20 31° E 21:40:27 31° E
Spot 1 4.1 21:38:58 21° SSE 21:42:03 88° WSW 21:46:25 10° NNW
NOSS 8 (F) 4.5 21:41:13 10° SSW 21:44:56 59° ESE 21:48:22 10° NE
CZ-3A R/B 1.8 21:39:30 10° SW 21:46:55 62° NW 21:49:23 10° NNE
Cosmos 1943 Rocket 4.0 21:44:05 10° NW 21:48:39 26° WSW 21:53:10 10° SSW
Aureole 1 Rocket 4.4 21:46:29 10° SW 21:49:35 28° WNW 21:52:20 10° N
Cosmos 2074 Rocket 4.0 21:46:39 10° N 21:52:55 82° W 21:57:47 18° S
Okean 2 3.3 21:54:01 46° SSE 21:55:00 63° E 21:59:03 10° NNE
Cosmos 2184 Rocket 4.1 21:49:57 10° N 21:56:17 80° W 22:00:55 19° S
Cosmos 1441 Rocket 4.0 21:53:25 11° SSW 21:56:51 48° W 22:00:28 10° N
Tiangong 2 4.5 21:56:28 10° NNW 21:56:56 10° NNW 21:57:24 10° N
Cosmos 1610 Rocket 4.4 21:51:32 10° N 21:57:46 71° E 22:00:51 31° SSE
ARGOS 4.0 21:58:32 30° E 21:59:34 32° ENE 22:04:19 10° N
Resurs 01 Rocket 4.3 21:59:37 10° SW 22:02:12 15° W 22:04:46 10° WNW
Cosmos 1371 Rocket 4.4 21:57:35 10° N 22:02:41 46° ENE 22:03:45 41° ESE
ERS-1 Rocket 3.0 22:01:27 43° SE 22:02:57 64° ENE 22:07:55 10° N
Meteor 1-23 Rocket 4.3 21:57:48 10° SSW 22:03:21 74° W 22:08:57 10° N
NOAA 11 4.3 22:05:25 42° ESE 22:06:53 55° ENE 22:12:10 10° N
SPOT 5 3.6 22:09:29 32° ENE 22:09:29 32° ENE 22:13:02 10° N
MetOp-B 4.1 22:18:17 54° SE 22:19:16 66° ENE 22:24:35 10° N
CENTAUR R/B 3.6 22:12:10 10° NW 22:20:07 56° WSW 22:24:51 27° S
Cosmos 2082 Rocket 2.1 22:23:35 58° SE 22:24:20 64° ESE 22:29:56 10° NNE
ASTRO E2 3.7 22:22:04 10° W 22:24:51 37° WSW 22:24:51 37° WSW
MOS 1-B Rocket 3.8 22:26:27 55° SSE 22:27:49 81° ENE 22:34:00 10° N
Meteor 1-15 Rocket 4.1 22:22:58 10° N 22:28:34 84° W 22:29:49 55° S
Cosmos 2278 4.3 22:25:44 10° N 22:31:04 40° ENE 22:31:15 40° ENE
Meteor 2-19 Rocket 4.3 22:28:47 10° N 22:34:56 81° E 22:36:04 61° SSE
SL-24 DEB 4.3 22:35:50 64° NE 22:35:50 64° NE 22:39:55 10° N
SL-8 Rocket 4.3 22:32:20 10° N 22:38:22 48° E 22:38:28 48° E
H-2A R/B 2.6 22:40:27 44° NE 22:40:27 44° NE 22:44:34 10° N
Cosmos 2154 Rocket 4.2 22:34:06 10° NNW 22:40:23 66° W 22:42:32 42° SSW
Mugunghwa Rocket 4.3 22:34:35 10° WSW 22:42:48 65° S 22:44:09 56° SE
OAO 2 Rocket 3.7 22:38:55 10° WNW 22:43:47 56° NNE 22:44:04 55° NNE
Cosmos 1624 Rocket 3.9 22:40:33 10° NNW 22:45:51 79° WSW 22:45:57 78° WSW
Cosmos 2228 4.2 22:43:38 10° N 22:46:19 36° NNE 22:46:19 36° NNE
SL-08 RB Rocket 4.2 22:50:33 55° N 22:50:33 55° N 22:54:03 10° N
Cosmos 921 Rocket 3.9 22:46:08 10° N 22:49:22 47° N 22:49:22 47° N
Cosmos 2369 3.8 22:45:16 10° NNW 22:50:41 61° NE 22:50:41 61° NE
Cosmos 1697 Rocket 4.0 22:46:45 10° N 22:50:57 28° NE 22:50:57 28° NE
Cosmos 1656 4.3 22:53:36 10° N 22:58:04 45° NE 22:58:04 45° NE
Cosmos 1833 Rocket 3.0 23:00:37 54° WSW 23:01:33 62° WNW 23:07:08 10° NNE
Cosmos 2056 Rocket 4.1 23:00:06 10° NNW 23:04:38 51° W 23:04:38 51° W
DMSP B5D2-2 4.4 23:02:13 10° N 23:06:34 61° N 23:06:34 61° N
Timation 2 Rocket 3.9 23:08:52 85° NNE 23:08:52 85° NNE 23:14:57 10° NNE
Cosmos 2218 Rocket 4.1 23:18:32 10° N 23:24:06 72° NNW 23:24:06 72° NNW
Cosmos 1980 Rocket 3.5 23:34:32 10° N 23:38:08 34° NNE 23:38:08 34° NNE
Terra 3.5 23:46:50 30° NNW 23:46:50 30° NNW 23:49:16 10° NNW
H-2A R/B 4.3 23:52:19 24° NNW 23:52:19 24° NNW 23:54:13 10° NNW
Cosmos 2322 Rocket 4.3 23:46:29 10° NNE 23:48:59 17° NE 23:48:59 17° NE
